Year,Month,Day,Hour,Minute,Value (Times are PST for temperature in C)
2017,07,14,00,00,15.20
2017,07,14,00,01,15.20
2017,07,14,00,02,15.20
2017,07,14,00,03,15.20
2017,07,14,00,04,15.20
2017,07,14,00,05,15.20
2017,07,14,00,06,15.20
2017,07,14,00,07,15.10
2017,07,14,00,08,15.10
2017,07,14,00,09,15.10
2017,07,14,00,10,15.10
2017,07,14,00,11,15.10
2017,07,14,00,12,15.10
2017,07,14,00,13,15.10
2017,07,14,00,14,15.10
2017,07,14,00,15,15.10
2017,07,14,00,16,15.10
2017,07,14,00,17,15.10
2017,07,14,00,18,15.10
2017,07,14,00,19,15.10
2017,07,14,00,20,15.10
2017,07,14,00,21,15.10
2017,07,14,00,22,15.10
2017,07,14,00,23,15.00
2017,07,14,00,24,15.00
2017,07,14,00,25,15.00
2017,07,14,00,26,14.90
2017,07,14,00,27,14.90
2017,07,14,00,28,14.90
2017,07,14,00,29,14.90
2017,07,14,00,30,14.90
2017,07,14,00,31,14.90
2017,07,14,00,32,14.90
2017,07,14,00,33,14.90
2017,07,14,00,34,14.90
2017,07,14,00,35,14.90
2017,07,14,00,36,14.80
2017,07,14,00,37,14.80
2017,07,14,00,38,14.80
2017,07,14,00,39,14.80
2017,07,14,00,40,14.90
2017,07,14,00,41,14.90
2017,07,14,00,42,14.90
2017,07,14,00,43,14.90
2017,07,14,00,44,14.90
2017,07,14,00,45,14.90
2017,07,14,00,46,14.90
2017,07,14,00,47,14.90
2017,07,14,00,48,14.90
2017,07,14,00,49,14.90
2017,07,14,00,50,14.90
2017,07,14,00,51,14.90
2017,07,14,00,52,14.90
2017,07,14,00,53,14.90
2017,07,14,00,54,14.90
2017,07,14,00,55,14.90
2017,07,14,00,56,14.80
2017,07,14,00,57,14.80
2017,07,14,00,58,14.80
2017,07,14,00,59,14.80
2017,07,14,01,00,14.80
2017,07,14,01,01,14.80
2017,07,14,01,02,14.80
2017,07,14,01,03,14.80
2017,07,14,01,04,14.80
2017,07,14,01,05,14.80
2017,07,14,01,06,14.80
2017,07,14,01,07,14.80
2017,07,14,01,08,14.70
2017,07,14,01,09,14.70
2017,07,14,01,10,14.70
2017,07,14,01,11,14.70
2017,07,14,01,12,14.70
2017,07,14,01,13,14.70
2017,07,14,01,14,14.70
2017,07,14,01,15,14.70
2017,07,14,01,16,14.70
2017,07,14,01,17,14.70
2017,07,14,01,18,14.70
2017,07,14,01,19,14.70
2017,07,14,01,20,14.70
2017,07,14,01,21,14.60
2017,07,14,01,22,14.60
2017,07,14,01,23,14.60
2017,07,14,01,24,14.60
2017,07,14,01,25,14.60
2017,07,14,01,26,14.60
2017,07,14,01,27,14.60
2017,07,14,01,28,14.70
2017,07,14,01,29,14.60
2017,07,14,01,30,14.60
2017,07,14,01,31,14.60
2017,07,14,01,32,14.60
2017,07,14,01,33,14.60
2017,07,14,01,34,14.60
2017,07,14,01,35,14.60
2017,07,14,01,36,14.60
2017,07,14,01,37,14.60
2017,07,14,01,38,14.50
2017,07,14,01,39,14.50
2017,07,14,01,40,14.50
2017,07,14,01,41,14.50
2017,07,14,01,42,14.50
2017,07,14,01,43,14.50
2017,07,14,01,44,14.50
2017,07,14,01,45,14.40
2017,07,14,01,46,14.40
2017,07,14,01,47,14.40
2017,07,14,01,48,14.40
2017,07,14,01,49,14.40
2017,07,14,01,50,14.50
2017,07,14,01,51,14.50
2017,07,14,01,52,14.50
2017,07,14,01,53,14.40
2017,07,14,01,54,14.40
2017,07,14,01,55,14.40
2017,07,14,01,56,14.40
2017,07,14,01,57,14.30
2017,07,14,01,58,14.30
2017,07,14,01,59,14.30
2017,07,14,02,00,14.30
2017,07,14,02,01,14.30
2017,07,14,02,02,14.30
2017,07,14,02,03,14.30
2017,07,14,02,04,14.30
2017,07,14,02,05,14.30
2017,07,14,02,06,14.30
2017,07,14,02,07,14.30
2017,07,14,02,08,14.30
2017,07,14,02,09,14.30
2017,07,14,02,10,14.30
2017,07,14,02,11,14.30
2017,07,14,02,12,14.30
2017,07,14,02,13,14.30
2017,07,14,02,14,14.30
2017,07,14,02,15,14.30
2017,07,14,02,16,14.30
2017,07,14,02,17,14.30
2017,07,14,02,18,14.30
2017,07,14,02,19,14.30
2017,07,14,02,20,14.20
2017,07,14,02,21,14.20
2017,07,14,02,22,14.20
2017,07,14,02,23,14.20
2017,07,14,02,24,14.20
2017,07,14,02,25,14.20
2017,07,14,02,26,14.20
2017,07,14,02,27,14.20
2017,07,14,02,28,14.20
2017,07,14,02,29,14.20
2017,07,14,02,30,14.20
2017,07,14,02,31,14.20
2017,07,14,02,32,14.20
2017,07,14,02,33,14.20
2017,07,14,02,34,14.10
2017,07,14,02,35,14.10
2017,07,14,02,36,14.10
2017,07,14,02,37,14.10
2017,07,14,02,38,14.10
2017,07,14,02,39,14.10
2017,07,14,02,40,14.10
2017,07,14,02,41,14.10
2017,07,14,02,42,14.00
2017,07,14,02,43,14.00
2017,07,14,02,44,14.00
2017,07,14,02,45,14.00
2017,07,14,02,46,14.00
2017,07,14,02,47,14.00
2017,07,14,02,48,14.00
2017,07,14,02,49,14.00
2017,07,14,02,50,14.00
2017,07,14,02,51,14.00
2017,07,14,02,52,13.90
2017,07,14,02,53,13.90
2017,07,14,02,54,13.90
2017,07,14,02,55,13.80
2017,07,14,02,56,13.80
2017,07,14,02,57,13.80
2017,07,14,02,58,13.70
2017,07,14,02,59,13.70
2017,07,14,03,00,13.60
2017,07,14,03,01,13.60
2017,07,14,03,02,13.50
2017,07,14,03,03,13.50
2017,07,14,03,04,13.40
2017,07,14,03,05,13.40
2017,07,14,03,06,13.40
2017,07,14,03,07,13.30
2017,07,14,03,08,13.30
2017,07,14,03,09,13.20
2017,07,14,03,10,13.20
2017,07,14,03,11,13.20
2017,07,14,03,12,13.20
2017,07,14,03,13,13.10
2017,07,14,03,14,13.10
2017,07,14,03,15,13.10
2017,07,14,03,16,13.10
2017,07,14,03,17,13.00
2017,07,14,03,18,13.00
2017,07,14,03,19,13.00
2017,07,14,03,20,12.90
2017,07,14,03,21,12.90
2017,07,14,03,22,12.80
2017,07,14,03,23,12.80
2017,07,14,03,24,12.70
2017,07,14,03,25,12.70
2017,07,14,03,26,12.70
2017,07,14,03,27,12.60
2017,07,14,03,28,12.60
2017,07,14,03,29,12.60
2017,07,14,03,30,12.50
2017,07,14,03,31,12.50
2017,07,14,03,32,12.40
2017,07,14,03,33,12.40
2017,07,14,03,34,12.40
2017,07,14,03,35,12.40
2017,07,14,03,36,12.30
2017,07,14,03,37,12.30
2017,07,14,03,38,12.30
2017,07,14,03,39,12.30
2017,07,14,03,40,12.30
2017,07,14,03,41,12.20
2017,07,14,03,42,12.20
2017,07,14,03,43,12.20
2017,07,14,03,44,12.20
2017,07,14,03,45,12.20
2017,07,14,03,46,12.20
2017,07,14,03,47,12.20
2017,07,14,03,48,12.20
2017,07,14,03,49,12.20
2017,07,14,03,50,12.20
2017,07,14,03,51,12.20
2017,07,14,03,52,12.20
2017,07,14,03,53,12.20
2017,07,14,03,54,12.10
2017,07,14,03,55,12.10
2017,07,14,03,56,12.10
2017,07,14,03,57,12.10
2017,07,14,03,58,12.10
2017,07,14,03,59,12.10
2017,07,14,04,00,12.00
2017,07,14,04,01,12.00
2017,07,14,04,02,12.00
2017,07,14,04,03,12.00
2017,07,14,04,04,12.00
2017,07,14,04,05,12.00
2017,07,14,04,06,12.00
2017,07,14,04,07,12.10
2017,07,14,04,08,12.10
2017,07,14,04,09,12.10
2017,07,14,04,10,12.10
2017,07,14,04,11,12.10
2017,07,14,04,12,12.10
2017,07,14,04,13,12.10
2017,07,14,04,14,12.10
2017,07,14,04,15,12.00
2017,07,14,04,16,12.00
2017,07,14,04,17,12.00
2017,07,14,04,18,11.90
2017,07,14,04,19,11.90
2017,07,14,04,20,11.90
2017,07,14,04,21,11.90
2017,07,14,04,22,11.90
2017,07,14,04,23,11.90
2017,07,14,04,24,11.90
2017,07,14,04,25,11.90
2017,07,14,04,26,11.90
2017,07,14,04,27,11.80
2017,07,14,04,28,11.80
2017,07,14,04,29,11.80
2017,07,14,04,30,11.70
2017,07,14,04,31,11.70
2017,07,14,04,32,11.70
2017,07,14,04,33,11.60
2017,07,14,04,34,11.60
2017,07,14,04,35,11.60
2017,07,14,04,36,11.60
2017,07,14,04,37,11.50
2017,07,14,04,38,11.50
2017,07,14,04,39,11.50
2017,07,14,04,40,11.40
2017,07,14,04,41,11.40
2017,07,14,04,42,11.40
2017,07,14,04,43,11.30
2017,07,14,04,44,11.30
2017,07,14,04,45,11.30
2017,07,14,04,46,11.20
2017,07,14,04,47,11.20
2017,07,14,04,48,11.20
2017,07,14,04,49,11.10
2017,07,14,04,50,11.10
2017,07,14,04,51,11.00
2017,07,14,04,52,11.00
2017,07,14,04,53,10.90
2017,07,14,04,54,10.90
2017,07,14,04,55,10.90
2017,07,14,04,56,10.90
2017,07,14,04,57,10.90
2017,07,14,04,58,10.90
2017,07,14,04,59,10.90
2017,07,14,05,00,10.90
2017,07,14,05,01,10.80
2017,07,14,05,02,10.80
2017,07,14,05,03,10.80
2017,07,14,05,04,10.80
2017,07,14,05,05,10.80
2017,07,14,05,06,10.80
2017,07,14,05,07,10.80
2017,07,14,05,08,10.80
2017,07,14,05,09,10.80
2017,07,14,05,10,10.70
2017,07,14,05,11,10.70
2017,07,14,05,12,10.70
2017,07,14,05,13,10.70
2017,07,14,05,14,10.70
2017,07,14,05,15,10.70
2017,07,14,05,16,10.70
2017,07,14,05,17,10.70
2017,07,14,05,18,10.70
2017,07,14,05,19,10.70
2017,07,14,05,20,10.70
2017,07,14,05,21,10.70
2017,07,14,05,22,10.70
2017,07,14,05,23,10.70
2017,07,14,05,24,10.70
2017,07,14,05,25,10.80
2017,07,14,05,26,10.80
2017,07,14,05,27,10.80
2017,07,14,05,28,10.80
2017,07,14,05,29,10.90
2017,07,14,05,30,10.90
2017,07,14,05,31,11.00
2017,07,14,05,32,11.00
2017,07,14,05,33,11.00
2017,07,14,05,34,11.10
2017,07,14,05,35,11.10
2017,07,14,05,36,11.10
2017,07,14,05,37,11.10
2017,07,14,05,38,11.10
2017,07,14,05,39,11.10
2017,07,14,05,40,11.10
2017,07,14,05,41,11.20
2017,07,14,05,42,11.20
2017,07,14,05,43,11.20
2017,07,14,05,44,11.20
2017,07,14,05,45,11.20
2017,07,14,05,46,11.20
2017,07,14,05,47,11.20
2017,07,14,05,48,11.20
2017,07,14,05,49,11.20
2017,07,14,05,50,11.20
2017,07,14,05,51,11.30
2017,07,14,05,52,11.30
2017,07,14,05,53,11.30
2017,07,14,05,54,11.30
2017,07,14,05,55,11.30
2017,07,14,05,56,11.30
2017,07,14,05,57,11.30
2017,07,14,05,58,11.30
2017,07,14,05,59,11.30
2017,07,14,06,00,11.40
2017,07,14,06,01,11.40
2017,07,14,06,02,11.40
2017,07,14,06,03,11.40
2017,07,14,06,04,11.50
2017,07,14,06,05,11.50
2017,07,14,06,06,11.60
2017,07,14,06,07,11.60
2017,07,14,06,08,11.70
2017,07,14,06,09,11.70
2017,07,14,06,10,11.70
2017,07,14,06,11,11.80
2017,07,14,06,12,11.90
2017,07,14,06,13,11.90
2017,07,14,06,14,12.00
2017,07,14,06,15,12.00
2017,07,14,06,16,12.10
2017,07,14,06,17,12.10
2017,07,14,06,18,12.10
2017,07,14,06,19,12.10
2017,07,14,06,20,12.20
2017,07,14,06,21,12.20
2017,07,14,06,22,12.20
2017,07,14,06,23,12.20
2017,07,14,06,24,12.30
2017,07,14,06,25,12.30
2017,07,14,06,26,12.30
2017,07,14,06,27,12.40
2017,07,14,06,28,12.40
2017,07,14,06,29,12.40
2017,07,14,06,30,12.40
2017,07,14,06,31,12.40
2017,07,14,06,32,12.40
2017,07,14,06,33,12.40
2017,07,14,06,34,12.40
2017,07,14,06,35,12.40
2017,07,14,06,36,12.50
2017,07,14,06,37,12.50
2017,07,14,06,38,12.50
2017,07,14,06,39,12.50
2017,07,14,06,40,12.60
2017,07,14,06,41,12.60
2017,07,14,06,42,12.60
2017,07,14,06,43,12.60
2017,07,14,06,44,12.60
2017,07,14,06,45,12.70
2017,07,14,06,46,12.70
2017,07,14,06,47,12.70
2017,07,14,06,48,12.80
2017,07,14,06,49,12.80
2017,07,14,06,50,12.80
2017,07,14,06,51,12.80
2017,07,14,06,52,12.90
2017,07,14,06,53,12.90
2017,07,14,06,54,13.00
2017,07,14,06,55,13.00
2017,07,14,06,56,13.10
2017,07,14,06,57,13.10
2017,07,14,06,58,13.20
2017,07,14,06,59,13.20
2017,07,14,07,00,13.30
2017,07,14,07,01,13.40
2017,07,14,07,02,13.40
2017,07,14,07,03,13.50
2017,07,14,07,04,13.60
2017,07,14,07,05,13.60
2017,07,14,07,06,13.70
2017,07,14,07,07,13.80
2017,07,14,07,08,13.80
2017,07,14,07,09,13.90
2017,07,14,07,10,13.90
2017,07,14,07,11,14.00
2017,07,14,07,12,14.00
2017,07,14,07,13,14.10
2017,07,14,07,14,14.10
2017,07,14,07,15,14.10
2017,07,14,07,16,14.20
2017,07,14,07,17,14.20
2017,07,14,07,18,14.30
2017,07,14,07,19,14.30
2017,07,14,07,20,14.30
2017,07,14,07,21,14.30
2017,07,14,07,22,14.30
2017,07,14,07,23,14.30
2017,07,14,07,24,14.30
2017,07,14,07,25,14.30
2017,07,14,07,26,14.30
2017,07,14,07,27,14.30
2017,07,14,07,28,14.30
2017,07,14,07,29,14.30
2017,07,14,07,30,14.30
2017,07,14,07,31,14.30
2017,07,14,07,32,14.40
2017,07,14,07,33,14.40
2017,07,14,07,34,14.40
2017,07,14,07,35,14.50
2017,07,14,07,36,14.50
2017,07,14,07,37,14.60
2017,07,14,07,38,14.60
2017,07,14,07,39,14.60
2017,07,14,07,40,14.70
2017,07,14,07,41,14.80
2017,07,14,07,42,14.80
2017,07,14,07,43,14.90
2017,07,14,07,44,14.90
2017,07,14,07,45,14.90
2017,07,14,07,46,15.00
2017,07,14,07,47,15.00
2017,07,14,07,48,15.10
2017,07,14,07,49,15.10
2017,07,14,07,50,15.10
2017,07,14,07,51,15.20
2017,07,14,07,52,15.20
2017,07,14,07,53,15.20
2017,07,14,07,54,15.20
2017,07,14,07,55,15.20
2017,07,14,07,56,15.20
2017,07,14,07,57,15.20
2017,07,14,07,58,15.10
2017,07,14,07,59,15.20
2017,07,14,08,00,15.20
2017,07,14,08,01,15.20
2017,07,14,08,02,15.20
2017,07,14,08,03,15.20
2017,07,14,08,04,15.20
2017,07,14,08,05,15.20
2017,07,14,08,06,15.20
2017,07,14,08,07,15.20
2017,07,14,08,08,15.20
2017,07,14,08,09,15.20
2017,07,14,08,10,15.10
2017,07,14,08,11,15.10
2017,07,14,08,12,15.10
2017,07,14,08,13,15.00
2017,07,14,08,14,15.00
2017,07,14,08,15,15.00
2017,07,14,08,16,15.00
2017,07,14,08,17,15.00
2017,07,14,08,18,15.00
2017,07,14,08,19,15.10
2017,07,14,08,20,15.10
2017,07,14,08,21,15.20
2017,07,14,08,22,15.30
2017,07,14,08,23,15.30
2017,07,14,08,24,15.40
2017,07,14,08,25,15.40
2017,07,14,08,26,15.50
2017,07,14,08,27,15.60
2017,07,14,08,28,15.70
2017,07,14,08,29,15.70
2017,07,14,08,30,15.80
2017,07,14,08,31,15.80
2017,07,14,08,32,15.90
2017,07,14,08,33,16.00
2017,07,14,08,34,16.00
2017,07,14,08,35,16.00
2017,07,14,08,36,16.10
2017,07,14,08,37,16.00
2017,07,14,08,38,16.00
2017,07,14,08,39,15.90
2017,07,14,08,40,15.90
2017,07,14,08,41,15.90
2017,07,14,08,42,15.90
2017,07,14,08,43,15.90
2017,07,14,08,44,15.80
2017,07,14,08,45,15.80
2017,07,14,08,46,15.80
2017,07,14,08,47,15.80
2017,07,14,08,48,15.80
2017,07,14,08,49,15.80
2017,07,14,08,50,15.80
2017,07,14,08,51,15.80
2017,07,14,08,52,15.80
2017,07,14,08,53,15.80
2017,07,14,08,54,15.70
2017,07,14,08,55,15.70
2017,07,14,08,56,15.70
2017,07,14,08,57,15.70
2017,07,14,08,58,15.70
2017,07,14,08,59,15.70
2017,07,14,09,00,15.70
2017,07,14,09,01,15.70
2017,07,14,09,02,15.70
2017,07,14,09,03,15.70
2017,07,14,09,04,15.60
2017,07,14,09,05,15.60
2017,07,14,09,06,15.60
2017,07,14,09,07,15.60
2017,07,14,09,08,15.50
2017,07,14,09,09,15.40
2017,07,14,09,10,15.40
2017,07,14,09,11,15.30
2017,07,14,09,12,15.30
2017,07,14,09,13,15.30
2017,07,14,09,14,15.30
2017,07,14,09,15,15.30
2017,07,14,09,16,15.30
2017,07,14,09,17,15.30
2017,07,14,09,18,15.20
2017,07,14,09,19,15.20
2017,07,14,09,20,15.20
2017,07,14,09,21,15.20
2017,07,14,09,22,15.20
2017,07,14,09,23,15.20
2017,07,14,09,24,15.20
2017,07,14,09,25,15.30
2017,07,14,09,26,15.30
2017,07,14,09,27,15.30
2017,07,14,09,28,15.40
2017,07,14,09,29,15.50
2017,07,14,09,30,15.50
2017,07,14,09,31,15.60
2017,07,14,09,32,15.60
2017,07,14,09,33,15.60
2017,07,14,09,34,15.60
2017,07,14,09,35,15.60
2017,07,14,09,36,15.50
2017,07,14,09,37,15.50
2017,07,14,09,38,15.50
2017,07,14,09,39,15.50
2017,07,14,09,40,15.50
2017,07,14,09,41,15.50
2017,07,14,09,42,15.60
2017,07,14,09,43,15.60
2017,07,14,09,44,15.60
2017,07,14,09,45,15.60
2017,07,14,09,46,15.60
2017,07,14,09,47,15.50
2017,07,14,09,48,15.50
2017,07,14,09,49,15.40
2017,07,14,09,50,15.50
2017,07,14,09,51,15.50
2017,07,14,09,52,15.60
2017,07,14,09,53,15.70
2017,07,14,09,54,15.70
2017,07,14,09,55,15.80
2017,07,14,09,56,15.80
2017,07,14,09,57,15.70
2017,07,14,09,58,15.70
2017,07,14,09,59,15.70
2017,07,14,10,00,15.70
2017,07,14,10,01,15.70
2017,07,14,10,02,15.70
2017,07,14,10,03,15.70
2017,07,14,10,04,15.70
2017,07,14,10,05,15.70
2017,07,14,10,06,15.70
2017,07,14,10,07,15.70
2017,07,14,10,08,15.70
2017,07,14,10,09,15.70
2017,07,14,10,10,15.70
2017,07,14,10,11,15.70
2017,07,14,10,12,15.70
2017,07,14,10,13,15.70
2017,07,14,10,14,15.80
2017,07,14,10,15,15.80
2017,07,14,10,16,15.80
2017,07,14,10,17,15.80
2017,07,14,10,18,15.80
2017,07,14,10,19,15.70
2017,07,14,10,20,15.80
2017,07,14,10,21,15.80
2017,07,14,10,22,15.90
2017,07,14,10,23,15.90
2017,07,14,10,24,16.00
2017,07,14,10,25,16.10
2017,07,14,10,26,16.10
2017,07,14,10,27,16.20
2017,07,14,10,28,16.30
2017,07,14,10,29,16.30
2017,07,14,10,30,16.40
2017,07,14,10,31,16.40
2017,07,14,10,32,16.40
2017,07,14,10,33,16.40
2017,07,14,10,34,16.40
2017,07,14,10,35,16.40
2017,07,14,10,36,16.40
2017,07,14,10,37,16.30
2017,07,14,10,38,16.30
2017,07,14,10,39,16.40
2017,07,14,10,40,16.40
2017,07,14,10,41,16.50
2017,07,14,10,42,16.60
2017,07,14,10,43,16.60
2017,07,14,10,44,16.60
2017,07,14,10,45,16.60
2017,07,14,10,46,16.60
2017,07,14,10,47,16.60
2017,07,14,10,48,16.60
2017,07,14,10,49,16.60
2017,07,14,10,50,16.70
2017,07,14,10,51,16.80
2017,07,14,10,52,16.90
2017,07,14,10,53,17.00
2017,07,14,10,54,17.10
2017,07,14,10,55,17.30
2017,07,14,10,56,17.40
2017,07,14,10,57,17.50
2017,07,14,10,58,17.50
2017,07,14,10,59,17.50
2017,07,14,11,00,17.50
2017,07,14,11,01,17.50
2017,07,14,11,02,17.50
2017,07,14,11,03,17.40
2017,07,14,11,04,17.40
2017,07,14,11,05,17.40
2017,07,14,11,06,17.40
2017,07,14,11,07,17.40
2017,07,14,11,08,17.40
2017,07,14,11,09,17.40
2017,07,14,11,10,17.40
2017,07,14,11,11,17.50
2017,07,14,11,12,17.50
2017,07,14,11,13,17.60
2017,07,14,11,14,17.70
2017,07,14,11,15,17.70
2017,07,14,11,16,17.70
2017,07,14,11,17,17.70
2017,07,14,11,18,17.70
2017,07,14,11,19,17.70
2017,07,14,11,20,17.70
2017,07,14,11,21,17.70
2017,07,14,11,22,17.70
2017,07,14,11,23,17.60
2017,07,14,11,24,17.50
2017,07,14,11,25,17.30
2017,07,14,11,26,17.30
2017,07,14,11,27,17.30
2017,07,14,11,28,17.30
2017,07,14,11,29,17.30
2017,07,14,11,30,17.30
2017,07,14,11,31,17.20
2017,07,14,11,32,17.20
2017,07,14,11,33,17.20
2017,07,14,11,34,17.20
2017,07,14,11,35,17.30
2017,07,14,11,36,17.30
2017,07,14,11,37,17.30
2017,07,14,11,38,17.20
2017,07,14,11,39,17.20
2017,07,14,11,40,17.20
2017,07,14,11,41,17.20
2017,07,14,11,42,17.30
2017,07,14,11,43,17.30
2017,07,14,11,44,17.30
2017,07,14,11,45,17.30
2017,07,14,11,46,17.20
2017,07,14,11,47,17.20
2017,07,14,11,48,17.20
2017,07,14,11,49,17.20
2017,07,14,11,50,17.20
2017,07,14,11,51,17.20
2017,07,14,11,52,17.10
2017,07,14,11,53,17.10
2017,07,14,11,54,17.10
2017,07,14,11,55,17.00
2017,07,14,11,56,17.00
2017,07,14,11,57,17.00
2017,07,14,11,58,16.90
2017,07,14,11,59,17.00
2017,07,14,12,00,17.00
2017,07,14,12,01,17.10
2017,07,14,12,02,17.20
2017,07,14,12,03,17.30
2017,07,14,12,04,17.40
2017,07,14,12,05,17.40
2017,07,14,12,06,17.40
2017,07,14,12,07,17.40
2017,07,14,12,08,17.40
2017,07,14,12,09,17.40
2017,07,14,12,10,17.50
2017,07,14,12,11,17.60
2017,07,14,12,12,17.60
2017,07,14,12,13,17.70
2017,07,14,12,14,17.80
2017,07,14,12,15,17.80
2017,07,14,12,16,17.80
2017,07,14,12,17,17.80
2017,07,14,12,18,17.70
2017,07,14,12,19,17.70
2017,07,14,12,20,17.80
2017,07,14,12,21,17.80
2017,07,14,12,22,17.80
2017,07,14,12,23,17.80
2017,07,14,12,24,17.80
2017,07,14,12,25,17.90
2017,07,14,12,26,18.00
2017,07,14,12,27,18.10
2017,07,14,12,28,18.10
2017,07,14,12,29,18.10
2017,07,14,12,30,18.10
2017,07,14,12,31,18.00
2017,07,14,12,32,18.10
2017,07,14,12,33,18.10
2017,07,14,12,34,18.10
2017,07,14,12,35,18.10
2017,07,14,12,36,18.10
2017,07,14,12,37,18.10
2017,07,14,12,38,18.10
2017,07,14,12,39,18.20
2017,07,14,12,40,18.20
2017,07,14,12,41,18.20
2017,07,14,12,42,18.20
2017,07,14,12,43,18.20
2017,07,14,12,44,18.20
2017,07,14,12,45,18.20
2017,07,14,12,46,18.20
2017,07,14,12,47,18.20
2017,07,14,12,48,18.20
2017,07,14,12,49,18.20
2017,07,14,12,50,18.20
2017,07,14,12,51,18.20
2017,07,14,12,52,18.20
2017,07,14,12,53,18.20
2017,07,14,12,54,18.20
2017,07,14,12,55,18.10
2017,07,14,12,56,18.00
2017,07,14,12,57,17.90
2017,07,14,12,58,17.90
2017,07,14,12,59,17.80
2017,07,14,13,00,17.80
2017,07,14,13,01,17.80
2017,07,14,13,02,17.80
2017,07,14,13,03,17.80
2017,07,14,13,04,17.80
2017,07,14,13,05,17.80
2017,07,14,13,06,17.80
2017,07,14,13,07,17.80
2017,07,14,13,08,17.80
2017,07,14,13,09,17.80
2017,07,14,13,10,17.80
2017,07,14,13,11,17.70
2017,07,14,13,12,17.60
2017,07,14,13,13,17.60
2017,07,14,13,14,17.60
2017,07,14,13,15,17.70
2017,07,14,13,16,17.70
2017,07,14,13,17,17.70
2017,07,14,13,18,17.60
2017,07,14,13,19,17.60
2017,07,14,13,20,17.60
2017,07,14,13,21,17.60
2017,07,14,13,22,17.60
2017,07,14,13,23,17.60
2017,07,14,13,24,17.70
2017,07,14,13,25,17.70
2017,07,14,13,26,17.70
2017,07,14,13,27,17.70
2017,07,14,13,28,17.70
2017,07,14,13,29,17.60
2017,07,14,13,30,17.70
2017,07,14,13,31,17.70
2017,07,14,13,32,17.80
2017,07,14,13,33,17.80
2017,07,14,13,34,17.80
2017,07,14,13,35,17.80
2017,07,14,13,36,17.80
2017,07,14,13,37,17.80
2017,07,14,13,38,17.80
2017,07,14,13,39,17.80
2017,07,14,13,40,17.80
2017,07,14,13,41,17.90
2017,07,14,13,42,17.90
2017,07,14,13,43,18.00
2017,07,14,13,44,18.10
2017,07,14,13,45,18.20
2017,07,14,13,46,18.20
2017,07,14,13,47,18.20
2017,07,14,13,48,18.20
2017,07,14,13,49,18.20
2017,07,14,13,50,18.20
2017,07,14,13,51,18.10
2017,07,14,13,52,18.10
2017,07,14,13,53,18.00
2017,07,14,13,54,17.90
2017,07,14,13,55,17.90
2017,07,14,13,56,18.00
2017,07,14,13,57,18.00
2017,07,14,13,58,18.10
2017,07,14,13,59,18.20
2017,07,14,14,00,18.30
2017,07,14,14,01,18.30
2017,07,14,14,02,18.40
2017,07,14,14,03,18.40
2017,07,14,14,04,18.50
2017,07,14,14,05,18.60
2017,07,14,14,06,18.70
2017,07,14,14,07,18.70
2017,07,14,14,08,18.70
2017,07,14,14,09,18.70
2017,07,14,14,10,18.70
2017,07,14,14,11,18.60
2017,07,14,14,12,18.60
2017,07,14,14,13,18.50
2017,07,14,14,14,18.50
2017,07,14,14,15,18.50
2017,07,14,14,16,18.50
2017,07,14,14,17,18.60
2017,07,14,14,18,18.60
2017,07,14,14,19,18.80
2017,07,14,14,20,19.00
2017,07,14,14,21,19.20
2017,07,14,14,22,19.30
2017,07,14,14,23,19.50
2017,07,14,14,24,19.60
2017,07,14,14,25,19.70
2017,07,14,14,26,19.80
2017,07,14,14,27,19.80
2017,07,14,14,28,19.80
2017,07,14,14,29,19.70
2017,07,14,14,30,19.60
2017,07,14,14,31,19.50
2017,07,14,14,32,19.40
2017,07,14,14,33,19.30
2017,07,14,14,34,19.30
2017,07,14,14,35,19.30
2017,07,14,14,36,19.20
2017,07,14,14,37,19.10
2017,07,14,14,38,19.10
2017,07,14,14,39,19.10
2017,07,14,14,40,19.10
2017,07,14,14,41,19.10
2017,07,14,14,42,19.10
2017,07,14,14,43,19.20
2017,07,14,14,44,19.30
2017,07,14,14,45,19.30
2017,07,14,14,46,19.30
2017,07,14,14,47,19.30
2017,07,14,14,48,19.20
2017,07,14,14,49,19.20
2017,07,14,14,50,19.20
2017,07,14,14,51,19.20
2017,07,14,14,52,19.20
2017,07,14,14,53,19.20
2017,07,14,14,54,19.20
2017,07,14,14,55,19.20
2017,07,14,14,56,19.20
2017,07,14,14,57,19.30
2017,07,14,14,58,19.30
2017,07,14,14,59,19.30
2017,07,14,15,00,19.40
2017,07,14,15,01,19.40
2017,07,14,15,02,19.40
2017,07,14,15,03,19.40
2017,07,14,15,04,19.50
2017,07,14,15,05,19.50
2017,07,14,15,06,19.50
2017,07,14,15,07,19.50
2017,07,14,15,08,19.50
2017,07,14,15,09,19.60
2017,07,14,15,10,19.60
2017,07,14,15,11,19.60
2017,07,14,15,12,19.50
2017,07,14,15,13,19.50
2017,07,14,15,14,19.40
2017,07,14,15,15,19.40
2017,07,14,15,16,19.30
2017,07,14,15,17,19.30
2017,07,14,15,18,19.20
2017,07,14,15,19,19.20
2017,07,14,15,20,19.10
2017,07,14,15,21,19.10
2017,07,14,15,22,19.00
2017,07,14,15,23,19.00
2017,07,14,15,24,18.90
2017,07,14,15,25,18.80
2017,07,14,15,26,18.80
2017,07,14,15,27,18.80
2017,07,14,15,28,18.70
2017,07,14,15,29,18.70
2017,07,14,15,30,18.80
2017,07,14,15,31,18.80
2017,07,14,15,32,18.80
2017,07,14,15,33,18.80
2017,07,14,15,34,18.80
2017,07,14,15,35,18.80
2017,07,14,15,36,18.80
2017,07,14,15,37,18.80
2017,07,14,15,38,18.90
2017,07,14,15,39,18.90
2017,07,14,15,40,19.00
2017,07,14,15,41,19.10
2017,07,14,15,42,19.10
2017,07,14,15,43,19.00
2017,07,14,15,44,19.00
2017,07,14,15,45,18.90
2017,07,14,15,46,18.90
2017,07,14,15,47,18.90
2017,07,14,15,48,18.80
2017,07,14,15,49,18.80
2017,07,14,15,50,18.80
2017,07,14,15,51,18.90
2017,07,14,15,52,19.00
2017,07,14,15,53,19.00
2017,07,14,15,54,19.10
2017,07,14,15,55,19.10
2017,07,14,15,56,19.10
2017,07,14,15,57,19.00
2017,07,14,15,58,19.00
2017,07,14,15,59,18.90
2017,07,14,16,00,18.90
2017,07,14,16,01,18.90
2017,07,14,16,02,18.80
2017,07,14,16,03,18.70
2017,07,14,16,04,18.70
2017,07,14,16,05,18.70
2017,07,14,16,06,18.80
2017,07,14,16,07,18.90
2017,07,14,16,08,19.00
2017,07,14,16,09,19.00
2017,07,14,16,10,18.90
2017,07,14,16,11,18.90
2017,07,14,16,12,18.90
2017,07,14,16,13,19.00
2017,07,14,16,14,19.00
2017,07,14,16,15,19.10
2017,07,14,16,16,19.20
2017,07,14,16,17,19.20
2017,07,14,16,18,19.30
2017,07,14,16,19,19.30
2017,07,14,16,20,19.30
2017,07,14,16,21,19.30
2017,07,14,16,22,19.40
2017,07,14,16,23,19.40
2017,07,14,16,24,19.40
2017,07,14,16,25,19.40
2017,07,14,16,26,19.30
2017,07,14,16,27,19.30
2017,07,14,16,28,19.30
2017,07,14,16,29,19.30
2017,07,14,16,30,19.40
2017,07,14,16,31,19.40
2017,07,14,16,32,19.50
2017,07,14,16,33,19.50
2017,07,14,16,34,19.50
2017,07,14,16,35,19.50
2017,07,14,16,36,19.60
2017,07,14,16,37,19.60
2017,07,14,16,38,19.70
2017,07,14,16,39,19.70
2017,07,14,16,40,19.70
2017,07,14,16,41,19.80
2017,07,14,16,42,19.80
2017,07,14,16,43,19.80
2017,07,14,16,44,19.80
2017,07,14,16,45,19.80
2017,07,14,16,46,19.80
2017,07,14,16,47,19.80
2017,07,14,16,48,19.80
2017,07,14,16,49,19.80
2017,07,14,16,50,19.80
2017,07,14,16,51,19.80
2017,07,14,16,52,19.90
2017,07,14,16,53,19.90
2017,07,14,16,54,19.90
2017,07,14,16,55,19.90
2017,07,14,16,56,20.00
2017,07,14,16,57,20.10
2017,07,14,16,58,20.20
2017,07,14,16,59,20.30
2017,07,14,17,00,20.40
2017,07,14,17,01,20.40
2017,07,14,17,02,20.50
2017,07,14,17,03,20.60
2017,07,14,17,04,20.70
2017,07,14,17,05,20.80
2017,07,14,17,06,20.90
2017,07,14,17,07,21.00
2017,07,14,17,08,21.10
2017,07,14,17,09,21.20
2017,07,14,17,10,21.30
2017,07,14,17,11,21.50
2017,07,14,17,12,21.60
2017,07,14,17,13,21.70
2017,07,14,17,14,21.70
2017,07,14,17,15,21.60
2017,07,14,17,16,21.60
2017,07,14,17,17,21.60
2017,07,14,17,18,21.50
2017,07,14,17,19,21.40